Terminal Aerodrome Forecast
Issued by NWS Mt. Holly, NJ

Home | Current Version | Previous Version | Text Only | Print | Product List | Glossary On
Versions: 1 2 3 4 5 6 7 8 9 10 11 12 13 14 15 16 17 18 19 20 21 22 23
000
FTUS41 KPHI 190500
TAFILG
TAF
KILG 190520Z 1906/2006 29008KT P6SM BKN035 OVC090
     FM191400 32012G18KT P6SM SCT040
     FM192200 32009KT P6SM FEW040=

USA.gov is the U.S. government's official web portal to all federal, state and local government web resources and services.